[[{"header":{"parameterUnit":"m.s-1","parameterCategory":1,"la1":30.2991,"la2":30.254,"lo1":-89.0895,"lo2":-89.0444,"dy":0.0017,"dx":0.0017,"nx":28,"ny":28,"refTime":"2025-12-15T09:00:00:Z","depth":0,"parameterNumber":2,"parameterNumberName":"U-component_of_WINDS"},"data":[0,0,0,0,0,0,0,0,0,0,0,0,0,0,0,0,0,0,0,0,0,0,0,0,0,0,0,0,0,0,0,0,0,0,0,0,0,0,0,0,0,0,0,0,0,0,0,0,0,0,0,0,0,0,0,0,0,0,-1.3487,-1.3487,0,-1.3514,-1.3514,-1.3514,-1.3488,-1.3487,-1.3486,-1.3485,-1.3515,-1.3516,-1.3518,0,0,0,0,0,0,0,0,0,0,0,0,0,-1.3416,-1.3417,-1.3487,-1.3487,-1.3488,-1.3514,-1.3514,-1.3514,-1.3488,-1.3487,-1.3485,-1.3484,-1.3514,-1.3516,-1.3518,0,0,0,0,0,0,0,0,0,0,0,0,0,-1.3445,-1.3418,-1.3487,-1.3478,-1.3477,-1.3514,-1.3514,-1.3514,-1.3488,-1.3487,-1.3485,-1.3484,-1.3513,-1.3516,-1.3519,-1.3567,0,0,-1.3527,-1.3528,0,0,0,0,0,0,0,0,-1.3444,-1.3448,-1.3479,-1.3478,-1.3478,-1.3496,-1.35,-1.3532,-1.3489,-1.3484,-1.3485,-1.3483,-1.351,-1.3513,-1.3521,-1.3568,-1.3569,-1.3527,-1.3529,-1.353,-1.353,0,0,0,0,0,0,0,-1.3442,-1.3447,-1.3498,-1.3479,-1.3479,-1.3473,-1.3475,-1.3506,-1.3506,-1.3484,-1.3482,-1.3486,-1.3509,-1.3519,-1.3522,-1.357,-1.3527,-1.3529,-1.3531,-1.3532,-1.3658,-1.366,0,0,0,0,0,0,-1.344,-1.3445,-1.3497,-1.3498,-1.3456,-1.3475,-1.3478,-1.3492,-1.3505,-1.3506,-1.3487,-1.3484,-1.3515,-1.3519,-1.3523,-1.3581,-1.353,-1.3532,-1.3534,-1.3657,-1.3659,-1.3661,0,0,0,0,0,0,-1.3439,-1.3445,-1.3496,-1.3471,-1.3477,-1.3478,-1.3494,-1.3493,-1.3502,-1.3507,-1.3507,-1.3497,-1.3514,-1.3519,-1.3556,-1.3581,-1.3533,-1.3536,-1.3655,-1.3657,-1.366,-1.3697,0,0,0,0,0,0,-1.3437,-1.3445,-1.3462,-1.3472,-1.3479,-1.3528,-1.3495,-1.3495,-1.3507,-1.3503,-1.3516,-1.3517,-1.3513,-1.3552,-1.3559,-1.3584,-1.3538,-1.3652,-1.3656,-1.3659,-1.3693,-1.37,-1.3706,0,0,0,0,0,-1.3434,-1.3472,-1.3463,-1.347,-1.3501,-1.3529,-1.3533,-1.3527,-1.3509,-1.3527,-1.353,-1.3516,-1.3577,-1.3556,-1.3563,-1.359,-1.3651,-1.3655,-1.3659,-1.3691,-1.3699,-1.3706,0,0,0,0,0,0,-1.3467,-1.3473,-1.3464,-1.3505,-1.3517,-1.3525,-1.3548,-1.3537,-1.3554,-1.3551,-1.3543,-1.3546,-1.3586,-1.3591,-1.3568,-1.3638,-1.3611,-1.3617,-1.3633,-1.3641,-1.3647,-1.3646,-1.354,0,0,0,0,0,-1.3478,-1.35,-1.3505,-1.3542,-1.3548,-1.3547,-1.3559,-1.3553,-1.3566,-1.3571,-1.3576,-1.3589,-1.3612,-1.3626,-1.3647,-1.3694,-1.3697,-1.3716,-1.3722,-1.3727,-1.3733,-1.3759,-1.3768,-1.3674,-1.3674,-1.3674,0,0,-1.3503,-1.351,-1.3524,-1.3548,-1.3556,-1.3581,-1.3551,-1.3578,-1.3596,-1.3575,-1.361,-1.3615,-1.3629,-1.3672,-1.369,-1.3677,-1.3759,-1.3733,-1.3737,-1.3739,-1.3764,-1.3773,-1.3781,-1.3677,-1.3676,-1.3676,0,0,-1.3561,-1.3568,-1.3599,-1.3608,-1.362,-1.362,-1.3627,-1.3637,-1.3639,-1.3674,-1.3659,-1.3681,-1.3719,-1.373,-1.374,-1.3803,-1.3791,-1.3809,-1.3844,-1.387,-1.3877,-1.3884,-1.3907,-1.3916,-1.3814,-1.3815,-1.3815,0,-1.3591,-1.3625,-1.3617,-1.3644,-1.3656,-1.3637,-1.367,-1.3679,-1.3698,-1.3707,-1.3692,-1.3739,-1.3747,-1.3793,-1.3808,-1.3816,-1.3826,-1.3809,-1.3877,-1.3883,-1.3889,-1.3912,-1.392,-1.3817,-1.3817,-1.3816,-1.3816,0,-1.3662,-1.3686,-1.371,-1.3729,-1.3743,-1.3773,-1.377,-1.3785,-1.3778,-1.3779,-1.3816,-1.3825,-1.3847,-1.3857,-1.3851,-1.3902,-1.3894,-1.3878,-1.3851,-1.3901,-1.3922,-1.393,-1.382,-1.3819,-1.3819,-1.3818,0,0,-1.3742,-1.3755,-1.3764,-1.3772,-1.3785,-1.3804,-1.3833,-1.3854,-1.3869,-1.3882,-1.3908,-1.394,-1.3926,-1.3938,-1.3932,-1.3955,-1.4005,-1.3936,-1.3936,-1.395,-1.4063,-1.4076,-1.4086,-1.3997,-1.3998,-1.4,-1.4063,0,-1.3801,-1.3851,-1.3844,-1.3893,-1.3916,-1.3899,-1.3925,-1.3936,-1.3937,-1.3958,-1.396,-1.3984,-1.3962,-1.3969,-1.3991,-1.3994,-1.4028,-1.3989,-1.4022,-1.4023,-1.402,-1.4097,-1.4111,-1.417,-1.4071,-1.4072,-1.4073,0,-1.3877,-1.3893,-1.3944,-1.3954,-1.3963,-1.3986,-1.4005,-1.4025,-1.4037,-1.4037,-1.405,-1.4041,-1.4072,-1.4044,-1.4087,-1.4061,-1.4073,-1.4077,-1.4079,-1.4083,-1.4052,-1.4105,-1.4188,-1.4198,-1.4086,-1.4085,-1.4084,0,-1.3932,-1.3966,-1.4001,-1.4009,-1.402,-1.4037,-1.4043,-1.4054,-1.4067,-1.4084,-1.4093,-1.4114,-1.4125,-1.4142,-1.4139,-1.4119,-1.4184,-1.4155,-1.4186,-1.4186,-1.4201,-1.4201,-1.429,-1.4207,-1.4207,-1.4207,-1.4206,0,-1.4,-1.4032,-1.4026,-1.4048,-1.4084,-1.4076,-1.4112,-1.4116,-1.4125,-1.4149,-1.4134,-1.4157,-1.415,-1.4173,-1.4171,-1.4207,-1.4212,-1.4214,-1.4214,-1.4216,-1.4216,-1.4226,-1.4222,-1.4209,-1.4208,-1.4208,-1.4208,0,-1.4068,-1.4065,-1.4102,-1.411,-1.4112,-1.4139,-1.4146,-1.4167,-1.4167,-1.4197,-1.4203,-1.4204,-1.423,-1.4228,-1.4257,-1.4255,-1.4301,-1.4295,-1.4297,-1.4296,-1.4328,-1.4325,-1.4427,-1.4441,-1.4348,-1.4349,-1.4349,0,-1.4112,-1.4136,-1.4146,-1.416,-1.4167,-1.419,-1.4203,-1.4196,-1.4211,-1.4227,-1.4247,-1.4271,-1.429,-1.4331,-1.4335,-1.4358,-1.4353,-1.4387,-1.4356,-1.4359,-1.4355,-1.4355,-1.4358,-1.4394,-1.4395,-1.4396,-1.4396,0,-1.4191,-1.4188,-1.4208,-1.4227,-1.4243,-1.4258,-1.4272,-1.4284,-1.4279,-1.4296,-1.4322,-1.4336,-1.4366,-1.439,-1.4411,-1.4418,-1.4407,-1.4406,-1.4414,-1.4418,-1.4419,-1.4421,-1.4315,-1.4404,-1.4403,-1.4402,-1.4402,-1.4402,-1.4249,-1.427,-1.4281,-1.4303,-1.4313,-1.4326,-1.4346,-1.4349,-1.437,-1.4392,-1.4387,-1.4416,-1.4429,-1.4456,-1.4465,-1.4488,-1.4476,-1.4488,-1.4492,-1.4495,-1.45,-1.4414,-1.4492,-1.4492,-1.4492,-1.4492,-1.4491,0,-1.4329,-1.4335,-1.4355,-1.4375,-1.4393,-1.4379,-1.4393,-1.4409,-1.4435,-1.4447,-1.4466,-1.4496,-1.4519,-1.4525,-1.4548,-1.4566,-1.4561,-1.4572,-1.4572,-1.4574,-1.4508,-1.4499,-1.4576,-1.4576,-1.4576,-1.4576,-1.4576,-1.4576,-1.4373,-1.4408,-1.4407,-1.4447,-1.4453,-1.4481,-1.449,-1.4503,-1.4512,-1.4546,-1.4565,-1.4568,-1.4579,-1.4602,-1.4624,-1.4625,-1.4635,-1.4648,-1.4648,-1.4587,-1.4578,-1.457,-1.4562,-1.465,-1.465,-1.4711,-1.4712,-1.4712]},{"header":{"parameterUnit":"m.s-1","parameterCategory":1,"la1":30.2991,"la2":30.254,"lo1":-89.0895,"lo2":-89.0444,"dy":0.0017,"dx":0.0017,"nx":28,"ny":28,"refTime":"2025-12-15T09:00:00:Z","depth":0,"parameterNumber":3,"parameterNumberName":"V-component_of_WINDS"},"data":[0,0,0,0,0,0,0,0,0,0,0,0,0,0,0,0,0,0,0,0,0,0,0,0,0,0,0,0,0,0,0,0,0,0,0,0,0,0,0,0,0,0,0,0,0,0,0,0,0,0,0,0,0,0,0,0,0,0,-2.1644,-2.1644,0,-2.165,-2.165,-2.165,-2.1614,-2.1613,-2.1612,-2.1611,-2.1615,-2.1616,-2.1617,0,0,0,0,0,0,0,0,0,0,0,0,0,-2.1601,-2.1602,-2.1644,-2.1644,-2.1644,-2.165,-2.165,-2.165,-2.1614,-2.1613,-2.1612,-2.161,-2.1615,-2.1616,-2.1617,0,0,0,0,0,0,0,0,0,0,0,0,0,-2.1615,-2.1603,-2.1644,-2.1627,-2.1626,-2.165,-2.165,-2.165,-2.1614,-2.1613,-2.1611,-2.161,-2.1615,-2.1616,-2.1618,-2.1658,0,0,-2.1623,-2.1623,0,0,0,0,0,0,0,0,-2.1614,-2.1616,-2.163,-2.1628,-2.1627,-2.163,-2.1636,-2.1653,-2.1615,-2.1619,-2.1611,-2.1609,-2.1621,-2.1622,-2.1626,-2.1658,-2.1658,-2.1623,-2.1624,-2.1624,-2.1625,0,0,0,0,0,0,0,-2.1613,-2.1616,-2.1646,-2.163,-2.1628,-2.1619,-2.1619,-2.1639,-2.1628,-2.1618,-2.1616,-2.1617,-2.162,-2.1625,-2.1626,-2.1658,-2.1623,-2.1624,-2.1625,-2.1626,-2.1725,-2.1726,0,0,0,0,0,0,-2.1615,-2.1615,-2.1646,-2.1646,-2.1617,-2.1621,-2.1621,-2.163,-2.1628,-2.1626,-2.1618,-2.1615,-2.1623,-2.1624,-2.1626,-2.1675,-2.1624,-2.1626,-2.1627,-2.1723,-2.1725,-2.1727,0,0,0,0,0,0,-2.1614,-2.1618,-2.1646,-2.163,-2.1633,-2.1623,-2.1634,-2.1631,-2.1636,-2.1628,-2.1626,-2.1625,-2.1622,-2.1624,-2.1651,-2.1675,-2.1627,-2.1628,-2.1721,-2.1724,-2.1726,-2.1772,0,0,0,0,0,0,-2.1613,-2.1618,-2.1633,-2.1631,-2.1634,-2.1671,-2.1635,-2.1632,-2.1639,-2.1635,-2.1634,-2.1632,-2.1621,-2.1649,-2.1652,-2.1676,-2.1629,-2.1719,-2.1722,-2.1725,-2.1768,-2.1776,-2.1782,0,0,0,0,0,-2.1612,-2.1645,-2.1634,-2.1638,-2.1653,-2.1672,-2.1674,-2.1661,-2.1641,-2.1657,-2.1651,-2.1632,-2.1671,-2.1652,-2.1656,-2.168,-2.1718,-2.1721,-2.1725,-2.1765,-2.1774,-2.1782,0,0,0,0,0,0,-2.165,-2.1645,-2.1632,-2.1666,-2.167,-2.1666,-2.1685,-2.167,-2.1679,-2.1675,-2.1657,-2.1657,-2.1688,-2.1686,-2.1665,-2.172,-2.1691,-2.1696,-2.172,-2.1729,-2.1735,-2.1736,-2.1631,0,0,0,0,0,-2.1663,-2.1679,-2.1673,-2.1703,-2.1706,-2.1696,-2.1703,-2.1692,-2.1695,-2.1697,-2.1693,-2.1697,-2.171,-2.1718,-2.173,-2.1767,-2.1767,-2.1786,-2.1793,-2.1798,-2.1803,-2.1825,-2.1834,-2.1739,-2.1739,-2.1739,0,0,-2.1689,-2.1688,-2.1699,-2.1711,-2.1713,-2.173,-2.1697,-2.1716,-2.1729,-2.1699,-2.1725,-2.1723,-2.1725,-2.1758,-2.1772,-2.1758,-2.1829,-2.1803,-2.1808,-2.181,-2.183,-2.1839,-2.1847,-2.1742,-2.1742,-2.1741,0,0,-2.1746,-2.1746,-2.1772,-2.1775,-2.1778,-2.1771,-2.1777,-2.1775,-2.1773,-2.1799,-2.1777,-2.1791,-2.1814,-2.1817,-2.1821,-2.188,-2.1863,-2.1884,-2.1921,-2.1942,-2.1949,-2.1956,-2.1979,-2.1987,-2.1888,-2.1888,-2.1888,0,-2.1778,-2.1803,-2.1788,-2.1809,-2.1816,-2.179,-2.1817,-2.182,-2.1826,-2.1831,-2.1814,-2.1843,-2.1842,-2.1877,-2.1891,-2.1895,-2.1902,-2.1885,-2.1949,-2.1956,-2.1962,-2.1983,-2.1992,-2.1891,-2.1891,-2.189,-2.189,0,-2.1844,-2.1862,-2.1883,-2.1891,-2.1899,-2.1923,-2.1911,-2.1922,-2.191,-2.1904,-2.1931,-2.193,-2.1941,-2.1948,-2.1936,-2.1981,-2.1972,-2.1952,-2.1924,-2.1974,-2.1994,-2.2002,-2.1895,-2.1894,-2.1893,-2.1892,0,0,-2.1926,-2.1926,-2.1934,-2.1938,-2.194,-2.1953,-2.1976,-2.1988,-2.1998,-2.2002,-2.2022,-2.2042,-2.2024,-2.2029,-2.2017,-2.2036,-2.2085,-2.2014,-2.2014,-2.2029,-2.2136,-2.2152,-2.2162,-2.2072,-2.2074,-2.2075,-2.2136,0,-2.1984,-2.2024,-2.2011,-2.2052,-2.2069,-2.2044,-2.2064,-2.2067,-2.2063,-2.2076,-2.207,-2.2086,-2.206,-2.2063,-2.208,-2.2075,-2.2106,-2.207,-2.2092,-2.2093,-2.2095,-2.2172,-2.219,-2.2248,-2.2144,-2.2145,-2.2146,0,-2.2057,-2.2066,-2.2109,-2.2109,-2.2116,-2.2134,-2.2145,-2.2157,-2.216,-2.2156,-2.2162,-2.2146,-2.2169,-2.2138,-2.217,-2.2146,-2.2153,-2.2152,-2.2154,-2.2157,-2.2124,-2.218,-2.2265,-2.2275,-2.2158,-2.2157,-2.2156,0,-2.2116,-2.2139,-2.2168,-2.2172,-2.2172,-2.2186,-2.2186,-2.2187,-2.2196,-2.2204,-2.221,-2.222,-2.2227,-2.2235,-2.2223,-2.2201,-2.2257,-2.2225,-2.2255,-2.2255,-2.2269,-2.2269,-2.236,-2.227,-2.227,-2.227,-2.227,0,-2.2184,-2.2211,-2.2195,-2.2214,-2.2244,-2.2228,-2.2258,-2.2256,-2.2257,-2.2275,-2.2252,-2.2269,-2.2251,-2.2266,-2.2256,-2.2285,-2.2287,-2.2284,-2.2282,-2.2288,-2.2289,-2.2295,-2.2291,-2.2272,-2.2271,-2.2271,-2.2271,0,-2.2256,-2.2246,-2.2277,-2.2274,-2.2274,-2.2297,-2.2295,-2.2311,-2.2305,-2.2327,-2.2331,-2.2321,-2.2338,-2.2326,-2.2341,-2.2335,-2.2373,-2.2364,-2.2373,-2.2371,-2.2403,-2.2401,-2.2503,-2.2516,-2.2415,-2.2416,-2.2417,0,-2.2301,-2.2322,-2.2322,-2.2333,-2.2335,-2.2352,-2.236,-2.2344,-2.2354,-2.236,-2.2376,-2.2391,-2.2402,-2.2429,-2.2423,-2.2436,-2.2428,-2.2462,-2.243,-2.2436,-2.2432,-2.2432,-2.2435,-2.247,-2.2471,-2.2472,-2.2473,0,-2.2383,-2.2377,-2.2391,-2.2403,-2.2414,-2.2423,-2.243,-2.2439,-2.2423,-2.2435,-2.2453,-2.2461,-2.2478,-2.2494,-2.2504,-2.2504,-2.2487,-2.2483,-2.2491,-2.2499,-2.2505,-2.2504,-2.2394,-2.2481,-2.2481,-2.248,-2.2479,-2.2479,-2.2444,-2.2463,-2.2466,-2.2483,-2.2486,-2.2493,-2.251,-2.2505,-2.2519,-2.2533,-2.2522,-2.2543,-2.2545,-2.2557,-2.256,-2.2576,-2.2562,-2.2573,-2.2576,-2.258,-2.2585,-2.25,-2.2577,-2.2577,-2.2577,-2.2576,-2.2576,0,-2.2527,-2.2528,-2.2543,-2.2554,-2.2567,-2.2549,-2.2556,-2.2568,-2.2587,-2.2591,-2.2603,-2.2623,-2.2638,-2.2633,-2.2646,-2.266,-2.2653,-2.2664,-2.2665,-2.2665,-2.2596,-2.2589,-2.267,-2.267,-2.267,-2.267,-2.267,-2.267,-2.2572,-2.2603,-2.2598,-2.263,-2.263,-2.2652,-2.2657,-2.2664,-2.2667,-2.2691,-2.2704,-2.27,-2.2701,-2.2714,-2.2727,-2.2725,-2.2732,-2.2748,-2.2743,-2.2679,-2.267,-2.2661,-2.2655,-2.2749,-2.2749,-2.2812,-2.2812,-2.2813]}]]